Flag for Netherlands Weather past 2 weeks in Leerdam, Netherlands

Now
66 °F

Passing clouds.


Feels Like: 66 °F
Forecast: 49 / 66 °F
Wind: 5 mph from Southwest

Location: De Bilt


UV Index: 3 (Moderate)

Visibility: 14 mi


Pressure: 30.10 "Hg

Humidity: 54%

Dew point: 49 °F

Location of LeerdamLocation

Historic Weather in Leerdam

°F

Leerdam temperature yesterday

Maximum temperature yesterday: 65 °F (at 6:00 PM)
Minimum temperature yesterday: 46 °F (at 7:00 AM)
Average temperature yesterday: 55 °F

Past Weeks' High & Low Weather Summary

 TemperatureHumidityPressure
High69 °F (Apr 20, 4:00 PM)100% (Apr 12, 7:00 AM)30.46 "Hg (Apr 12, 7:00 AM)
Low31 °F (Apr 16, 7:00 AM)35% (Apr 17, 3:00 PM)29.64 "Hg (Apr 21, 6:00 PM)
Average51 °F71%30.07 "Hg
* Reported Apr 8 2:00 PM — Apr 23 2:00 PM, Leerdam, Weather by CustomWeather, © 2014

Note: Actual official high and low records may vary slightly from our data, if they occured in-between our weather recording intervals... More about our weather records

Advertising

Historic Weather Conditions — Data for Previous 24 hours

 ConditionsComfort  
Time TempWeatherWind HumidityBarometerVisibility
2:00 PM
Apr 23
66 °FPassing clouds.5 mph54%30.10 "Hg14 mi
1:00 PM65 °FPassing clouds.3 mph59%30.11 "Hg12 mi
12:00 PM62 °FOvercast.2 mph69%30.11 "Hg7 mi
11:00 AM59 °FPartly sunny.2 mph73%30.11 "Hg7 mi
10:00 AM57 °FFog.2 mph80%30.10 "Hg6 mi
9:00 AM53 °FFog.2 mph86%30.09 "Hg4 mi
8:00 AM49 °FFog.1 mph94%30.08 "Hg4 mi
7:00 AM43 °FPassing clouds.2 mph97%30.06 "Hg3 mi
6:00 AM41 °FOvercast.No wind100%30.05 "Hg1 mi
5:00 AM43 °FPassing clouds.1 mph99%30.04 "Hg1 mi
4:00 AM43 °FPassing clouds.2 mph97%30.04 "Hg1 mi
3:00 AM44 °FPassing clouds.1 mph99%30.03 "Hg1 mi
2:00 AM44 °FPassing clouds.1 mph97%30.03 "Hg1 mi
1:00 AM45 °FFog.1 mph99%30.01 "Hg6 mi
12:00 AM47 °FClear.1 mph95%30.00 "Hg12 mi
11:00 PM
Apr 22
49 °FPassing clouds.No wind95%29.98 "Hg9 mi
10:00 PM52 °FPassing clouds.1 mph88%29.97 "Hg14 mi
9:00 PM57 °FOvercast.1 mph73%29.95 "Hg19 mi
8:00 PM62 °FOvercast.2 mph56%29.93 "Hg19 mi
7:00 PM63 °FOvercast.1 mph53%29.91 "Hg25 mi
6:00 PM65 °FPartly sunny.2 mph47%29.90 "Hg22 mi
5:00 PM65 °FPartly sunny.2 mph48%29.89 "Hg19 mi
4:00 PM63 °FOvercast.3 mph54%29.89 "Hg16 mi
3:00 PM62 °FOvercast.5 mph56%29.88 "Hg17 mi
2:00 PM60 °FOvercast.6 mph59%29.87 "Hg11 mi
Weather by CustomWeather, © 2014

See weather overview